Location: Unspecified
(0.0000°N, 0.0000°E)
Time: 01:10:29
(UTC+00:00)

A-11 Canister half - Visible Passes

Search period start: 26 May 2019 00:00
Search period end: 05 June 2019 00:00
Orbit: 1517 x 1683 km, 47.2° (Epoch: 24 May)

Date Brightness Start Highest point End Pass type
(mag) Time Alt. Az. Time Alt. Az. Time Alt. Az.
26 May 9.9 02:45:40 38° SE 02:45:40 38° SE 02:51:12 10° SE visible
26 May 9.8 04:44:03 22° WSW 04:46:22 24° SW 04:53:59 10° S visible
27 May 10.7 02:25:58 19° SE 02:25:58 19° SE 02:28:11 10° SE visible
27 May 9.8 04:24:19 26° SW 04:24:19 26° SW 04:31:20 10° S visible
28 May 10.1 04:04:10 23° SSW 04:04:10 23° SSW 04:08:39 10° S visible
29 May 10.5 03:43:41 17° S 03:43:41 17° S 03:45:56 10° S visible
30 May 10.9 03:23:00 11° SSE 03:23:00 11° SSE 03:23:13 10° SSE visible
04 Jun 11.2 22:44:31 10° N 22:44:36 10° N 22:44:36 10° N visible
